Regional Weather Roundup
Issued by NWS

Home | Current Version | Previous Version | Graphics & Text | Print | Product List | Glossary Off
Versions: 1 2 3 4 5 6 7 8 9 10 11 12 13 14 15 16 17 18 19 20 21 22 23 24 25 26 27 28 29 30 31 32 33 34 35 36 37 38 39 40 41 42 43 44 45 46 47 48 49 50

000
ASUS43 KDTX 021510
RWRMI
MICHIGAN HOURLY REGIONAL WEATHER ROUNDUP
NATIONAL WEATHER SERVICE DETROIT/PONTIAC MI
1100 AM EDT SUN AUG 02 2015

NOTE: "FAIR" INDICATES FEW OR NO CLOUDS BELOW 12,000 FEET WITH NO
SIGNIFICANT WEATHER AND/OR OBSTRUCTION TO VISIBILITY.

MIZ047>049-052>055-059>063-066>070-074>076-081>083-021600-
SOUTHEAST LOWER MICHIGAN

CITY           SKY/WX    TMP DP  RH WIND       PRES   REMARKS
ADRIAN         SUNNY     78  68  71 SW9       29.88F
ALMA           SUNNY     80  70  71 SW13G22   29.78F
ANN ARBOR      SUNNY     79  68  69 SW12      29.86F
BAD AXE        SUNNY     78  61  56 S12G17    29.77F
CARO           MOSUNNY   79  65  62 S13       29.78F
DETROIT CITY   MOSUNNY   78  64  61 SW12      29.85F
DETROIT        PTSUNNY   80  67  64 SW12      29.87F
FLINT          SUNNY     81  68  64 SW13      29.82S
GROSSE ILE     SUNNY     79  66  65 SW8       29.86S
HILLSDALE      SUNNY     81  70  68 SW7       29.89F
HOWELL         SUNNY     81  67  60 SW8       29.83F

CITY           SKY/WX    TMP DP  RH WIND       PRES   REMARKS
JACKSON        SUNNY     79  67  66 SW14      29.86F
LAMBERTVILLE   SUNNY     80  67  64 SW5       29.89F
LANSING        SUNNY     82  67  60 SW13      29.83S
LAPEER         FAIR      81  64  56 SW13      29.82S
MASON          SUNNY     77  66  68 SW5       29.84F
MONROE         SUNNY     79  68  68 SW8       29.87S
MT. CLEMENS    MOSUNNY   81  65  57 SW12      29.82F
PONTIAC        MOSUNNY   78  67  68 S9        29.84S
PORT HOPE        N/A     79  60  52 VRB7      29.75F
PORT HURON     MOSUNNY   77  61  57 S14       29.83F
TRI CITIES     MOSUNNY   78  68  71 SW14      29.77F
MIDLAND        FAIR      78  66  68 SW8       29.75F
TROY           MOSUNNY   79  64  61 SW10      29.86S
SAGINAW HB     MOSUNNY   79  68  69 S14       29.76F
$$
MIZ043>046-050>051-056>058-064>065-071>073-077>080-021600-
SOUTHWEST LOWER MICHIGAN

CITY           SKY/WX    TMP DP  RH WIND       PRES   REMARKS
BATTLE CREEK   SUNNY     83  70  64 SW20G25   29.85F
BENTON HARBOR  SUNNY     84  66  54 SW20G25   29.84F
BIG RAPIDS     CLOUDY    79  69  72 SW14G20   29.77R
COLDWATER      SUNNY     78  68  72 SW15      29.89S
FREMONT        PTSUNNY   80  71  74 SW14G25   29.76S
HOLLAND        MOSUNNY   82  69  64 SW20G29   29.81F
GRAND RAPIDS   MOSUNNY   82  70  66 SW21G28   29.80F
IONIA          FAIR      82  70  65 SW20      29.80F
KALAMAZOO      SUNNY     82  70  66 SW13      29.85F
LUDINGTON      MOSUNNY   76  70  82 SW16G22   29.73F
MARSHALL       SUNNY     80  69  68 S10G16    29.85F
MOUNT PLEASANT MOSUNNY   82  68  61 SW13      29.75R
MUSKEGON       PTSUNNY   80  68  66 SW21G33   29.78F
SOUTH HAVEN    MOSUNNY   81  66  60 SW17G26   29.83S
$$
MIZ016>042-021600-
NORTHERN LOWER MICHIGAN

CITY           SKY/WX    TMP DP  RH WIND       PRES   REMARKS
ALPENA         CLOUDY    77  60  55 SW9       29.68F
BEAVER ISLAND  CLOUDY    65  62  91 CALM      29.66F
BELLAIRE       CLOUDY    75  64  69 S6        29.69S
CADILLAC       PTSUNNY   77  68  74 SW12G24   29.72F
CHARLEVOIX     LGT RAIN  66  62  87 CALM      29.69F
FRANKFORT      CLOUDY    73  68  86 SW9       29.70F
GAYLORD        LGT RAIN  71  64  78 SW10      29.72S
GRAYLING       CLOUDY    74  64  69 SW10      29.74R
HARBOR SPRINGS RAIN      63  60  92 W3        29.69F
HOUGHTON LAKE  PTSUNNY   75  65  70 SW13      29.74R
MANISTEE       PTSUNNY   77  66  69 S14G20    29.71S
OSCODA         MOSUNNY   80  60  50 SW14G21   29.71F
PELLSTON       LGT RAIN  63  61  93 SW7       29.69F
ROGERS CITY    LGT RAIN  69  61  75 SW9       29.70R
TRAVERSE CITY  CLOUDY    78  67  68 SW9       29.68S
$$
MIZ007>008-015-021600-
EASTERN UPPER MICHIGAN

CITY           SKY/WX    TMP DP  RH WIND       PRES   REMARKS
KINROSS        CLOUDY    64  63  94 S5        29.63F
MACKINAC ISLAN RAIN      64  63  98 S8        29.65F
NEWBERRY       CLOUDY    67  64  90 SW3       29.64S
S. S. MARIE    CLOUDY    67  64  90 CALM      29.63F
MUNISING         N/A     71  63  75 S8        29.60F
$$
MIZ004>006-011>014-085-021600-
CENTRAL UPPER MICHIGAN

CITY           SKY/WX    TMP DP  RH WIND       PRES   REMARKS
MANISTIQUE     CLOUDY    66  61  82 SW3       29.63F
ESCANABA       CLOUDY    64  61  88 E6        29.64F THUNDER
MENOMINEE      CLOUDY    72  64  78 N7        29.64F
SAWYER-GWINN   CLOUDY    64  61  88 S8        29.63F
$$
MIZ001>003-009>011-084-021600-
WESTERN UPPER MICHIGAN

CITY           SKY/WX    TMP DP  RH WIND       PRES   REMARKS
IRON MOUNTAIN  CLOUDY    65  62  90 SE5       29.61F
HOUGHTON       PTSUNNY   68  59  73 S3        29.59F
COPPER HARBOR    N/A     70  61  73 VRB3      29.58S
IRONWOOD       PTSUNNY   66  63  88 SE7       29.58F
$$

ABBREVIATIONS USED IN REMARKS
   TC - TEMPERATURE IN CELSIUS
  WCI - WIND CHILL INDEX
   HX - HEAT INDEX
  VSB - VISIBILITY




USA.gov is the U.S. government's official web portal to all federal, state and local government web resources and services.